Temp
-8 -7 -8 -8 -8 -8 -8 -8 -8 -7 -7 -8 -8 -8 -7 -7 -7 -7 -8 -8 -9 -8 -7 -8 -8 -8 -8 -8 -8 -7 -7 -7 -8 -8 -7 -7 -7 -8 -8 -8 -8 -8 -7 -7 -7 -7 -7 -7 -7
-8 -8 -9 -8 -8 -8 -8 -8 -9 -7 -8 -8 -8 -8 -7 -7 -7 -8 -8 -8 -8 -8 -9 -9 -9 -9 -9 -9 -8 -8 -8 -8 -8 -8 -8 -8 -8 -8 -8 -8 -8 -8 -8 -8 -8 -8 -8 -8 -8
-8 -8 -9 -8 -8 -8 -8 -7 -9 -9 -9 -7 -7 -8 -8 -7 -8 -8 -8 -9 -9 -9 -9 -9 -9 -9 -9 -9 -9 -9 -9 -9 -9 -8 -8 -8 -8 -8 -8 -8 -8 -8 -8 -8 -8 -8 -8 -8 -8
-9 -9 -9 -9 -9 -9 -8 -9 -9 -9 -9 -9 -8 -10 -9 -8 -8 -8 -8 -8 -9 -9 -9 -9 -9 -9 -9 -9 -9 -9 -9 -9 -9 -9 -9 -8 -8 -8 -8 -9 -8 -8 -8 -9 -9 -9 -9 -9 -9
-9 -8 -7 -9 -9 -9 -10 -10 -10 -10 -9 -10 -9 -10 -9 -9 -9 -8 -9 -9 -9 -9 -10 -10 -10 -9 -9 -9 -9 -9 -9 -9 -9 -9 -9 -9 -9 -9 -9 -9 -9 -9 -9 -9 -9 -9 -9 -10 -10
-9 -9 -9 -9 -8 -9 -9 -9 -9 -9 -9 -9 -8 -9 -10 -10 -10 -10 -10 -10 -10 -10 -9 -9 -9 -9 -10 -10 -10 -10 -9 -9 -9 -9 -10 -10 -10 -10 -10 -10 -10 -10 -10 -10 -10 -10 -10 -10 -10
-9 -10 -10 -10 -9 -9 -9 -9 -9 -10 -10 -10 -9 -9 -9 -10 -10 -10 -9 -10 -10 -10 -10 -10 -10 -10 -10 -10 -10 -10 -9 -9 -9 -10 -10 -10 -11 -11 -11 -11 -11 -11 -11 -11 -11 -11 -11 -11 -11
-9 -9 -10 -10 -8 -9 -9 -9 -9 -8 -11 -10 -10 -10 -10 -10 -10 -10 -10 -10 -10 -10 -10 -10 -10 -10 -10 -10 -10 -10 -10 -9 -9 -9 -10 -10 -11 -11 -11 -12 -12 -12 -11 -12 -12 -11 -11 -11 -11
-9 -10 -10 -9 -8 -8 -9 -9 -10 -8 -9 -10 -11 -11 -11 -10 -10 -10 -10 -10 -10 -10 -10 -10 -10 -10 -10 -10 -11 -10 -10 -10 -10 -10 -10 -11 -11 -12 -12 -12 -13 -12 -11 -11 -11 -11 -11 -11 -12
-10 -10 -10 -9 -8 -9 -10 -9 -9 -8 -10 -10 -11 -10 -10 -10 -10 -11 -11 -11 -11 -11 -11 -10 -10 -10 -10 -10 -11 -11 -11 -11 -10 -11 -11 -11 -11 -11 -12 -11 -12 -12 -11 -11 -11 -11 -11 -12 -11
-10 -10 -10 -10 -10 -9 -10 -10 -9 -10 -10 -10 -10 -10 -10 -10 -10 -11 -11 -11 -11 -11 -11 -11 -10 -11 -11 -10 -10 -11 -12 -12 -11 -12 -12 -12 -12 -12 -12 -12 -11 -11 -12 -12 -11 -11 -11 -11 -12
-10 -10 -10 -9 -9 -10 -10 -10 -10 -10 -10 -11 -10 -10 -10 -11 -11 -11 -11 -11 -11 -11 -11 -11 -11 -11 -11 -11 -11 -11 -12 -12 -12 -12 -12 -12 -12 -12 -12 -12 -12 -12 -12 -12 -11 -11 -12 -12 -12
-11 -10 -10 -10 -10 -9 -10 -11 -11 -11 -10 -10 -10 -11 -11 -11 -11 -11 -11 -11 -11 -11 -11 -12 -11 -11 -11 -12 -12 -12 -12 -13 -12 -13 -12 -12 -12 -12 -12 -12 -12 -12 -12 -12 -12 -12 -12 -12 -12
-10 -10 -8 -9 -9 -9 -10 -10 -10 -10 -10 -11 -11 -11 -11 -11 -11 -11 -11 -11 -11 -11 -12 -12 -12 -12 -12 -12 -12 -13 -13 -13 -13 -13 -13 -13 -13 -13 -12 -12 -13 -13 -13 -13 -13 -12 -12 -13 -13
-11 -10 -10 -10 -10 -10 -10 -10 -10 -10 -10 -10 -11 -11 -11 -11 -11 -11 -12 -12 -12 -12 -12 -12 -12 -13 -13 -13 -13 -13 -13 -13 -13 -13 -13 -13 -13 -13 -14 -14 -13 -13 -13 -13 -13 -13 -13 -14 -13
-10 -11 -10 -9 -11 -10 -10 -10 -10 -9 -11 -12 -11 -11 -11 -12 -12 -12 -12 -12 -12 -12 -12 -12 -12 -13 -13 -13 -13 -13 -14 -14 -14 -14 -14 -14 -14 -14 -14 -14 -14 -14 -14 -14 -13 -13 -13 -13 -13
-10 -10 -10 -10 -9 -10 -10 -10 -10 -10 -12 -12 -12 -12 -12 -12 -12 -12 -12 -12 -12 -12 -12 -12 -12 -13 -13 -13 -14 -14 -14 -13 -14 -14 -14 -15 -15 -15 -14 -14 -13 -13 -13 -13 -14 -13 -13 -14 -14
-11 -11 -11 -10 -10 -11 -10 -10 -11 -11 -10 -12 -12 -12 -12 -12 -12 -12 -12 -12 -13 -12 -12 -13 -13 -14 -14 -14 -14 -14 -14 -14 -14 -14 -14 -14 -14 -14 -15 -14 -14 -14 -14 -14 -14 -14 -14 -14 -14
-10 -11 -11 -11 -10 -10 -10 -10 -9 -10 -11 -11 -12 -13 -12 -12 -12 -12 -11 -13 -12 -13 -14 -14 -14 -15 -15 -15 -15 -15 -15 -16 -15 -15 -14 -14 -14 -14 -14 -15 -15 -14 -15 -14 -14 -14 -15 -15 -15
-11 -11 -11 -10 -11 -10 -11 -11 -11 -11 -11 -11 -12 -13 -13 -12 -12 -12 -13 -12 -13 -13 -13 -14 -14 -15 -15 -15 -15 -15 -15 -15 -15 -15 -15 -15 -14 -15 -15 -15 -15 -15 -15 -15 -15 -15 -15 -15 -15
-10 -10 -10 -10 -10 -11 -11 -11 -11 -11 -11 -11 -12 -14 -13 -12 -12 -12 -13 -13 -13 -14 -14 -14 -15 -15 -15 -15 -16 -16 -16 -16 -16 -16 -15 -15 -15 -15 -15 -15 -15 -15 -16 -16 -16 -16 -16 -16 -16
-10 -10 -10 -10 -10 -12 -12 -12 -12 -12 -11 -12 -12 -13 -13 -13 -13 -13 -13 -14 -14 -15 -15 -15 -15 -16 -16 -16 -16 -16 -17 -17 -18 -18 -17 -17 -17 -16 -16 -16 -16 -16 -16 -17 -17 -17 -17 -17 -17
-10 -10 -10 -10 -10 -11 -12 -12 -11 -11 -13 -12 -13 -13 -13 -13 -13 -13 -14 -14 -15 -16 -16 -16 -16 -17 -17 -17 -17 -17 -17 -17 -18 -18 -18 -18 -18 -18 -18 -18 -18 -18 -18 -18 -18 -18 -18 -18 -18
-10 -10 -10 -10 -11 -11 -11 -12 -12 -12 -12 -13 -13 -13 -13 -13 -13 -13 -14 -15 -16 -16 -16 -17 -17 -17 -18 -18 -18 -18 -18 -18 -18 -18 -19 -19 -19 -19 -19 -19 -19 -19 -19 -19 -19 -19 -19 -19 -20
-10 -10 -10 -10 -10 -11 -12 -13 -13 -12 -13 -13 -13 -13 -13 -13 -13 -14 -15 -15 -16 -17 -17 -17 -17 -18 -18 -18 -18 -19 -19 -19 -19 -19 -19 -19 -19 -20 -20 -20 -20 -20 -20 -20 -20 -20 -20 -20 -20
-11 -11 -11 -10 -11 -12 -13 -13 -12 -13 -13 -13 -12 -13 -13 -13 -14 -14 -16 -16 -17 -17 -17 -17 -17 -17 -18 -18 -18 -19 -19 -19 -19 -19 -19 -20 -20 -20 -20 -21 -21 -21 -22 -21 -21 -21 -21 -21 -21
-11 -11 -12 -11 -11 -13 -13 -13 -13 -13 -12 -13 -13 -14 -14 -14 -14 -15 -16 -16 -17 -17 -17 -17 -17 -17 -17 -18 -18 -19 -19 -19 -19 -19 -19 -19 -20 -20 -20 -21 -22 -22 -22 -22 -22 -21 -21 -21 -21
-11 -11 -11 -11 -12 -13 -12 -13 -13 -13 -13 -13 -14 -14 -14 -14 -15 -15 -16 -17 -17 -17 -17 -17 -17 -17 -17 -18 -18 -18 -19 -19 -19 -20 -20 -20 -20 -20 -21 -21 -22 -22 -22 -22 -22 -22 -22 -22 -22
-11 -11 -12 -12 -12 -12 -13 -13 -13 -13 -14 -13 -14 -14 -14 -15 -15 -16 -16 -17 -17 -17 -17 -17 -17 -18 -18 -18 -18 -18 -18 -19 -19 -19 -20 -20 -20 -21 -21 -21 -22 -22 -22 -22 -22 -22 -22 -22 -21
-11 -12 -13 -13 -13 -13 -13 -13 -13 -13 -14 -14 -14 -14 -14 -16 -16 -16 -16 -17 -17 -17 -17 -17 -17 -18 -18 -18 -18 -18 -19 -19 -19 -19 -20 -20 -20 -20 -21 -21 -21 -22 -22 -22 -22 -22 -22 -21 -21
Height
5902 5902 5903 5904 5907 5906 5906 5905 5907 5904 5902 5902 5900 5899 5900 5898 5895 5895 5893 5885 5889 5890 5888 5889 5892 5894 5894 5894 5894 5894 5894 5894 5894 5894 5894 5894 5893 5892 5892 5892 5892 5893 5894 5895 5895 5895 5894 5895 5894
5903 5904 5903 5902 5903 5903 5896 5898 5907 5902 5901 5899 5899 5898 5897 5897 5895 5895 5893 5891 5889 5887 5887 5890 5891 5892 5892 5892 5892 5892 5891 5892 5891 5891 5890 5890 5889 5889 5889 5889 5889 5889 5890 5891 5891 5891 5891 5890 5890
5904 5907 5906 5903 5898 5897 5898 5900 5901 5902 5903 5900 5896 5896 5897 5897 5897 5893 5890 5890 5889 5888 5889 5890 5891 5892 5892 5891 5890 5889 5888 5888 5887 5887 5886 5886 5885 5885 5885 5885 5885 5885 5886 5886 5887 5887 5886 5886 5885
5904 5907 5908 5904 5902 5906 5901 5903 5905 5904 5905 5903 5897 5896 5897 5895 5896 5897 5893 5892 5890 5890 5892 5892 5892 5891 5890 5888 5887 5886 5885 5884 5883 5882 5882 5881 5880 5879 5879 5880 5881 5882 5882 5882 5883 5882 5882 5881 5881
5906 5907 5904 5904 5903 5901 5901 5904 5902 5906 5905 5900 5898 5896 5896 5896 5894 5894 5896 5893 5891 5892 5890 5889 5888 5887 5886 5885 5884 5882 5881 5880 5879 5878 5877 5876 5876 5876 5876 5876 5877 5877 5877 5878 5878 5878 5877 5876 5876
5908 5905 5906 5901 5903 5900 5900 5904 5909 5907 5903 5903 5900 5896 5898 5898 5896 5896 5896 5897 5895 5891 5889 5887 5885 5884 5883 5881 5880 5878 5877 5875 5873 5872 5871 5871 5871 5871 5871 5871 5871 5871 5871 5872 5871 5870 5870 5870 5870
5908 5907 5907 5904 5901 5905 5905 5904 5908 5904 5902 5899 5900 5894 5896 5899 5896 5894 5894 5892 5893 5892 5888 5885 5884 5882 5881 5879 5877 5875 5873 5870 5868 5866 5865 5863 5863 5864 5864 5864 5864 5864 5864 5865 5864 5864 5864 5865 5865
5911 5906 5910 5907 5900 5904 5905 5905 5905 5879 5902 5902 5895 5892 5896 5895 5896 5895 5891 5889 5889 5888 5886 5885 5883 5879 5877 5875 5873 5872 5870 5868 5864 5862 5861 5859 5858 5859 5859 5857 5856 5856 5856 5856 5857 5857 5859 5858 5859
5911 5909 5910 5907 5897 5896 5905 5909 5906 5901 5900 5898 5896 5896 5895 5891 5890 5892 5891 5890 5887 5885 5882 5881 5877 5875 5873 5871 5868 5866 5865 5863 5860 5858 5855 5854 5855 5854 5854 5852 5850 5849 5850 5850 5849 5850 5851 5851 5850
5912 5912 5905 5901 5903 5899 5906 5908 5908 5903 5901 5896 5894 5898 5894 5895 5890 5885 5884 5884 5885 5881 5877 5877 5875 5871 5868 5865 5863 5860 5858 5856 5856 5852 5850 5849 5849 5847 5847 5844 5843 5842 5841 5841 5839 5841 5842 5840 5840
5917 5912 5908 5900 5899 5904 5906 5905 5904 5904 5903 5900 5898 5894 5892 5888 5887 5886 5883 5882 5879 5877 5873 5870 5869 5866 5861 5858 5856 5854 5853 5850 5849 5847 5844 5842 5841 5840 5840 5838 5836 5832 5832 5833 5832 5829 5831 5831 5830
5918 5914 5912 5907 5906 5907 5904 5906 5906 5905 5902 5898 5897 5894 5889 5886 5882 5881 5880 5877 5875 5872 5868 5865 5862 5859 5857 5853 5850 5850 5848 5843 5842 5841 5839 5836 5833 5832 5831 5830 5828 5825 5824 5827 5824 5819 5822 5822 5820
5914 5910 5907 5910 5910 5908 5904 5903 5903 5901 5900 5898 5894 5889 5886 5882 5878 5877 5875 5872 5870 5866 5862 5858 5854 5851 5848 5845 5843 5841 5841 5838 5836 5832 5831 5829 5826 5823 5821 5820 5818 5816 5815 5816 5815 5813 5811 5812 5810
5913 5906 5909 5911 5907 5902 5900 5900 5899 5898 5896 5893 5888 5884 5881 5878 5875 5873 5869 5866 5862 5860 5856 5851 5847 5844 5840 5838 5835 5832 5829 5829 5828 5825 5823 5820 5817 5814 5811 5808 5806 5805 5804 5805 5804 5801 5800 5800 5799
5908 5906 5905 5905 5899 5895 5899 5897 5893 5890 5889 5886 5882 5879 5877 5874 5871 5866 5863 5859 5856 5852 5848 5844 5840 5836 5833 5829 5826 5823 5820 5818 5816 5814 5812 5810 5807 5804 5801 5799 5795 5794 5794 5792 5791 5791 5790 5789 5788
5911 5908 5902 5901 5900 5896 5898 5896 5886 5884 5882 5881 5878 5875 5872 5869 5865 5861 5857 5852 5847 5843 5840 5836 5832 5828 5824 5821 5818 5814 5810 5807 5804 5802 5799 5798 5795 5791 5789 5787 5784 5783 5781 5779 5779 5779 5777 5777 5778
5904 5902 5899 5900 5900 5892 5886 5883 5879 5871 5874 5875 5875 5873 5869 5864 5861 5857 5851 5846 5842 5839 5834 5830 5825 5819 5815 5812 5807 5802 5798 5794 5794 5792 5792 5790 5783 5780 5777 5774 5773 5771 5769 5768 5767 5766 5765 5765 5765
5902 5900 5900 5899 5894 5888 5876 5872 5859 5862 5860 5862 5870 5869 5865 5859 5856 5852 5845 5841 5838 5835 5829 5824 5819 5813 5806 5801 5796 5792 5787 5784 5783 5781 5778 5775 5773 5769 5765 5761 5759 5758 5756 5755 5754 5754 5753 5752 5752
5902 5900 5898 5895 5893 5885 5876 5873 5840 5844 5861 5866 5864 5861 5858 5854 5850 5846 5839 5836 5832 5828 5821 5817 5812 5805 5797 5791 5786 5782 5776 5771 5769 5766 5763 5760 5757 5756 5752 5748 5744 5742 5742 5740 5740 5740 5740 5739 5739
5906 5903 5900 5899 5896 5884 5884 5877 5866 5858 5861 5853 5852 5852 5853 5850 5846 5841 5836 5830 5826 5820 5815 5809 5802 5794 5787 5782 5776 5769 5763 5757 5753 5749 5747 5743 5741 5738 5736 5733 5730 5729 5728 5727 5726 5725 5725 5725 5725
5903 5901 5900 5898 5897 5885 5881 5876 5868 5867 5861 5853 5847 5848 5846 5843 5840 5834 5826 5820 5815 5808 5802 5795 5787 5780 5776 5769 5761 5754 5748 5741 5736 5731 5729 5727 5724 5722 5718 5717 5716 5714 5713 5713 5712 5712 5713 5712 5713
5900 5898 5895 5894 5890 5886 5882 5876 5865 5863 5859 5854 5844 5841 5838 5832 5829 5824 5817 5811 5803 5797 5790 5784 5778 5769 5762 5755 5748 5742 5734 5728 5722 5718 5714 5710 5707 5705 5702 5701 5700 5699 5699 5699 5697 5698 5699 5700 5701
5895 5893 5893 5889 5885 5880 5875 5871 5862 5860 5858 5851 5842 5838 5833 5828 5824 5817 5807 5802 5795 5787 5780 5777 5767 5758 5750 5744 5735 5729 5722 5715 5709 5704 5699 5695 5694 5692 5689 5688 5687 5687 5687 5686 5686 5686 5687 5688 5689
5892 5888 5886 5884 5881 5874 5870 5866 5858 5856 5848 5842 5841 5836 5829 5824 5818 5811 5804 5797 5789 5780 5771 5764 5755 5748 5741 5734 5727 5719 5711 5704 5698 5692 5688 5684 5682 5680 5678 5676 5675 5675 5675 5675 5676 5678 5679 5680 5683
5886 5883 5878 5879 5876 5870 5866 5863 5859 5856 5851 5845 5840 5835 5830 5823 5815 5806 5797 5788 5780 5775 5767 5758 5750 5742 5735 5726 5718 5710 5701 5694 5687 5682 5677 5673 5670 5668 5666 5666 5666 5667 5667 5667 5669 5670 5671 5674 5676
5879 5878 5876 5869 5869 5867 5861 5857 5856 5853 5849 5845 5839 5833 5826 5819 5812 5801 5793 5785 5778 5772 5764 5756 5748 5739 5730 5720 5710 5701 5692 5684 5677 5672 5668 5664 5660 5657 5656 5657 5658 5660 5661 5662 5663 5664 5666 5669 5671
5878 5876 5874 5867 5866 5861 5857 5855 5854 5851 5845 5842 5834 5828 5821 5815 5806 5797 5789 5780 5773 5766 5758 5750 5743 5735 5726 5717 5708 5698 5689 5680 5673 5668 5664 5660 5656 5653 5651 5651 5652 5654 5656 5658 5659 5661 5663 5665 5667
5874 5871 5869 5866 5861 5857 5853 5851 5850 5846 5843 5836 5832 5824 5817 5811 5800 5792 5785 5776 5767 5762 5755 5748 5741 5734 5726 5717 5708 5699 5689 5680 5672 5667 5662 5658 5654 5651 5649 5648 5649 5651 5653 5656 5658 5659 5660 5662 5664
5871 5869 5866 5862 5857 5855 5852 5849 5845 5842 5838 5834 5828 5820 5814 5805 5795 5788 5780 5771 5766 5759 5753 5747 5741 5734 5727 5718 5709 5701 5691 5682 5674 5668 5663 5659 5655 5652 5650 5649 5649 5651 5653 5655 5656 5656 5657 5660 5663
5864 5863 5861 5858 5856 5853 5851 5848 5843 5840 5835 5830 5824 5817 5811 5802 5791 5783 5775 5769 5764 5759 5753 5747 5742 5735 5728 5720 5712 5704 5696 5687 5679 5672 5666 5662 5658 5654 5652 5651 5650 5651 5652 5654 5657 5657 5659 5661 5665
Wind_Speed
5 4 6 3 12 8 9 6 3 14 13 13 9 11 9 10 9 8 4 10 11 4 3 5 7 12 14 16 18 18 19 19 19 20 21 24 25 26 27 27 27 27 26 26 25 25 24 24 24
4 8 8 8 13 15 15 11 4 18 12 5 6 5 10 10 8 5 5 5 7 6 5 6 9 11 13 15 19 19 21 22 22 24 26 28 28 29 29 30 30 30 30 29 28 28 27 26 26
5 10 4 16 8 14 13 18 8 16 18 10 4 12 10 9 8 8 9 6 6 6 7 9 11 13 14 15 16 19 21 22 22 24 27 28 30 30 31 32 33 32 31 31 30 29 29 29 29
9 11 11 13 9 10 8 11 18 26 23 11 6 12 10 8 8 4 8 9 9 9 8 9 11 13 15 17 18 20 22 24 25 27 28 30 31 32 32 33 33 33 31 30 29 29 30 30 31
10 4 6 4 7 10 13 12 14 23 29 25 8 7 8 9 10 9 7 9 10 10 11 10 11 13 15 17 20 22 24 26 28 31 32 33 34 34 33 33 33 33 32 32 32 33 33 33 34
4 3 16 9 8 1 4 9 17 19 26 10 8 10 10 11 9 9 7 4 6 10 10 11 13 14 16 18 20 21 23 26 28 32 33 35 35 36 37 36 36 36 36 36 35 36 37 35 35
4 14 14 19 15 3 4 15 15 6 9 4 5 6 8 7 12 11 10 8 8 10 15 15 15 15 18 20 20 21 22 23 23 23 29 36 36 37 40 40 38 37 36 35 35 35 35 34 32
4 12 18 15 19 11 9 17 32 13 13 14 12 15 14 11 10 12 11 14 16 17 17 16 17 19 20 19 21 22 24 24 23 23 24 25 29 35 39 42 40 35 34 34 34 35 35 34 32
10 13 7 19 17 8 10 16 23 33 17 13 16 14 15 15 15 10 13 15 17 23 25 22 23 24 24 21 24 21 20 21 22 22 20 23 26 31 32 33 36 36 34 35 34 34 33 34 34
16 6 7 15 15 12 17 22 26 18 15 15 15 18 18 14 19 21 22 22 21 27 29 23 24 29 29 27 26 26 23 25 22 21 22 26 27 31 28 32 34 35 32 33 32 34 37 38 39
14 9 10 17 20 18 21 23 22 13 15 15 18 22 22 21 21 22 23 26 28 29 33 31 30 32 34 32 30 28 22 22 22 22 23 26 26 29 30 33 28 29 25 32 38 35 39 40 35
15 17 15 16 20 23 22 18 18 17 16 18 20 21 22 26 28 28 27 30 31 32 33 33 37 37 35 33 33 31 28 31 30 28 28 32 34 34 35 35 35 34 34 23 30 43 39 39 47
17 18 19 19 19 18 16 23 23 20 21 21 23 22 25 27 29 30 30 31 34 34 35 37 37 38 39 37 36 34 33 35 36 36 37 39 40 42 42 42 43 44 40 41 42 44 50 44 43
11 18 16 17 24 20 22 13 14 21 23 26 27 23 23 25 29 30 34 35 37 39 39 42 44 44 42 40 39 39 37 38 39 39 43 44 45 47 48 50 51 50 50 50 53 56 55 49 50
17 18 19 32 22 24 22 8 19 24 27 26 25 26 26 29 33 37 37 38 41 42 43 43 43 43 42 42 42 42 43 44 46 46 44 45 46 46 45 47 51 54 54 55 55 60 60 55 57
15 19 30 30 11 29 29 14 25 29 27 26 26 27 28 32 37 38 40 41 40 41 41 42 40 39 40 40 40 44 47 48 50 49 48 47 47 45 44 45 47 48 49 51 53 58 61 58 58
22 26 28 36 33 30 34 36 32 38 29 30 30 27 28 32 31 35 36 37 36 37 36 37 38 41 41 42 44 44 49 50 49 45 45 45 49 50 48 47 49 49 49 50 51 51 51 53 55
26 24 27 33 31 29 41 43 46 33 29 14 16 19 28 27 29 34 40 40 30 36 38 39 41 38 39 45 49 48 45 45 41 46 47 46 45 47 48 49 49 50 51 51 51 52 52 53 53
18 22 28 30 38 38 40 37 15 33 17 25 9 18 25 27 29 31 32 21 41 37 40 39 40 42 44 45 48 50 46 48 51 50 49 52 52 51 50 48 50 52 52 51 51 52 52 53 54
16 18 25 29 28 35 32 34 41 51 44 48 11 21 24 27 30 33 36 36 42 42 42 42 42 43 46 49 49 49 49 48 50 51 51 52 52 49 48 47 48 49 49 50 50 51 53 53 54
23 24 24 26 25 25 30 37 44 45 33 28 29 33 35 35 36 37 41 43 45 46 46 48 49 54 55 52 49 47 48 48 49 51 52 52 52 50 48 48 48 50 50 50 50 49 49 48 50
19 24 28 25 18 17 30 32 38 31 38 23 41 37 40 42 45 46 46 48 49 51 50 53 54 54 50 47 47 49 50 48 45 43 47 49 48 48 48 47 47 47 46 44 43 44 43 42 40
25 26 24 24 26 22 15 24 36 40 37 29 40 41 42 45 47 49 53 55 52 51 52 51 50 48 47 49 51 50 48 46 44 41 38 38 39 39 40 40 40 38 36 35 32 32 32 34 29
21 26 25 26 23 23 25 26 37 39 33 37 34 39 44 48 51 54 55 53 50 50 49 49 51 50 48 46 45 45 43 40 39 37 36 35 34 34 33 33 32 30 28 27 26 25 22 16 12
26 24 27 25 21 20 22 25 29 35 31 31 37 40 44 48 53 56 55 52 49 47 44 43 42 40 41 41 40 40 40 39 39 38 37 37 36 35 34 30 27 24 22 19 18 17 17 19 20
27 24 29 33 20 7 21 29 29 27 28 27 35 41 45 49 53 54 50 47 45 38 37 41 37 35 36 40 38 35 34 33 31 28 23 21 21 20 21 22 21 17 15 14 16 17 17 18 18
25 27 30 26 18 13 18 17 28 21 27 33 38 41 45 49 53 49 47 46 40 35 39 35 31 31 35 36 35 35 33 28 23 19 16 14 13 12 10 11 12 9 14 15 14 15 14 12 14
30 30 23 20 16 13 16 26 21 26 29 34 36 41 45 49 51 48 43 40 35 36 33 29 26 30 31 31 32 34 33 29 23 18 15 15 13 11 9 4 6 11 12 10 9 10 10 11 8
27 22 20 16 13 11 18 25 28 30 32 36 39 42 46 46 47 42 43 34 29 31 28 27 24 27 30 30 29 30 33 31 28 24 20 19 15 11 9 7 3 4 6 4 1 8 5 3 7
27 23 20 11 12 14 17 21 26 30 34 38 40 43 44 41 44 41 40 28 28 24 24 21 23 26 28 30 28 28 31 32 27 26 23 19 19 17 13 9 8 8 8 8 7 9 11 13 13
Wind_Direction
167 93 41 310 132 173 88 118 111 349 344 356 4 358 354 350 343 349 345 329 355 359 328 310 271 266 262 261 258 258 256 251 246 241 250 253 251 251 251 251 252 253 254 254 254 253 254 256 257
144 98 42 21 152 133 161 142 30 341 341 63 16 18 4 354 343 325 313 339 325 355 347 307 283 271 268 267 264 263 262 259 254 250 244 246 248 249 252 253 253 254 255 255 254 254 254 254 256
125 90 85 52 69 160 158 145 93 345 333 300 74 19 0 356 354 335 327 335 343 345 320 295 282 277 269 266 267 264 263 262 258 257 254 252 252 253 254 255 254 254 255 255 255 254 253 253 254
116 69 49 47 357 91 43 27 341 324 322 303 40 8 350 358 348 350 332 335 354 0 329 300 291 287 283 281 277 273 272 270 266 263 261 259 255 254 257 259 260 259 257 257 258 258 258 259 260
100 67 56 64 356 41 23 359 355 311 322 295 59 60 14 8 356 344 1 341 331 332 329 338 322 306 300 294 289 282 277 274 271 266 263 263 261 261 261 262 265 266 265 264 265 265 266 266 267
139 84 46 12 0 12 9 339 289 296 302 309 6 49 18 28 16 357 3 349 12 354 338 333 315 313 312 306 299 295 290 282 279 269 263 261 263 265 265 265 265 266 267 265 265 265 267 267 268
144 60 15 314 300 351 1 284 290 359 339 189 342 39 348 11 8 341 330 309 340 350 347 337 331 320 297 290 294 300 303 298 292 280 275 270 259 263 265 265 264 265 268 269 268 268 268 267 269
204 60 22 278 275 282 277 302 331 31 31 24 19 2 341 333 347 351 337 329 337 336 328 329 321 319 315 300 283 288 293 296 297 291 283 282 275 275 274 271 260 263 261 264 268 267 268 270 270
41 14 10 317 290 218 335 337 314 324 339 11 349 334 340 332 334 325 317 318 319 327 327 325 318 314 309 307 305 296 294 289 286 289 281 277 279 277 273 271 266 262 266 270 268 269 268 269 266
348 305 287 283 287 336 315 322 313 328 348 344 330 330 328 324 321 322 328 328 324 321 322 319 324 321 310 301 303 297 292 285 283 280 277 276 290 275 266 263 266 267 265 267 273 277 270 267 269
282 59 301 282 287 298 302 309 315 335 322 331 322 324 328 327 326 321 318 320 315 316 316 309 311 316 316 308 302 300 290 277 277 280 283 283 283 281 284 261 258 256 272 279 284 269 268 272 262
263 260 245 275 290 298 309 305 312 314 317 314 318 326 324 322 321 317 314 309 312 312 311 308 307 307 309 305 299 294 292 279 271 265 270 277 279 281 281 277 271 276 277 273 238 262 265 259 274
266 259 264 273 277 271 277 304 309 304 306 307 312 317 319 316 312 312 310 306 305 305 306 305 306 309 307 304 298 291 285 280 282 277 276 275 277 279 276 272 272 269 269 268 257 263 274 270 270
234 263 288 291 282 266 265 277 302 314 308 306 305 311 312 310 309 311 308 307 305 306 307 307 309 307 303 298 294 291 285 280 279 277 277 281 281 281 278 277 277 275 271 266 261 263 267 271 275
247 268 281 329 252 288 268 288 339 308 301 304 309 311 309 308 310 312 310 307 307 307 306 304 302 301 299 297 294 290 287 284 283 282 281 282 282 281 278 276 276 274 272 272 271 268 274 277 275
302 316 357 343 6 337 323 296 307 320 323 310 305 305 309 310 313 311 308 306 304 304 305 304 302 299 296 292 289 290 286 286 282 281 279 286 282 280 276 278 278 278 278 277 274 272 273 275 275
328 353 350 332 341 343 337 332 312 316 308 304 303 308 312 315 310 313 307 302 303 307 308 307 307 303 298 296 297 294 294 293 272 272 275 279 278 279 279 276 276 277 277 277 278 277 275 275 276
346 336 333 323 337 342 331 330 314 291 272 266 296 314 334 318 313 314 310 306 315 317 309 306 306 302 301 302 299 295 295 292 290 286 284 281 278 278 279 278 277 277 277 277 276 276 276 276 277
320 320 315 322 322 323 329 330 101 17 354 350 321 347 335 338 328 324 329 315 325 317 309 308 305 304 305 304 302 305 288 294 295 292 290 284 280 279 279 277 278 279 279 277 277 278 278 278 277
298 287 292 306 334 319 322 316 317 316 333 320 346 6 344 337 331 330 326 320 318 317 314 313 308 305 303 306 306 303 300 294 290 286 283 282 281 280 279 279 279 278 278 277 277 276 277 277 278
274 306 315 310 319 312 317 309 302 317 329 336 342 2 348 340 335 334 331 326 320 318 317 313 311 308 309 309 308 308 307 302 296 288 281 278 279 280 280 281 281 278 277 276 274 274 273 273 273
283 302 309 321 320 315 305 308 307 315 314 318 337 348 341 340 338 335 332 326 324 321 318 315 315 313 310 307 309 311 309 307 303 292 282 279 278 278 280 280 279 277 277 276 274 273 272 271 270
277 300 319 316 320 313 307 306 305 308 312 292 342 342 338 339 335 333 332 329 328 320 317 315 316 315 314 314 313 312 310 306 304 301 296 289 285 282 280 279 278 279 278 277 276 274 272 270 273
297 310 322 314 318 295 301 307 303 310 347 359 346 340 338 334 332 329 330 327 324 322 326 326 322 320 316 315 314 312 310 309 306 304 301 297 293 288 285 283 283 282 281 277 275 273 265 257 246
304 318 317 315 317 295 295 298 298 306 323 339 336 336 329 329 329 331 330 330 329 331 330 328 330 327 324 322 321 318 315 309 303 300 297 293 289 283 280 278 278 278 277 273 269 260 254 249 244
316 325 329 324 330 320 297 290 299 317 329 322 330 329 329 331 331 330 330 328 326 327 326 327 328 333 334 335 333 332 327 322 319 317 317 313 306 295 285 278 275 274 251 244 245 244 244 243 235
319 311 328 324 325 284 300 304 316 334 330 331 336 331 330 333 331 330 330 329 330 330 331 336 345 350 350 348 347 347 345 340 335 332 327 322 326 331 318 288 273 228 235 242 256 248 247 250 240
310 319 323 315 304 268 311 318 325 342 337 335 336 330 332 333 330 333 337 335 330 336 341 345 353 355 354 355 358 357 358 2 360 358 2 11 9 10 2 323 199 218 236 246 252 254 246 248 256
302 314 328 312 296 299 296 311 326 334 334 335 336 330 335 339 332 337 339 331 337 341 348 355 356 358 2 2 4 7 10 10 16 21 22 23 22 19 26 44 91 174 190 190 257 292 244 231 173
312 321 319 290 298 305 314 323 331 335 335 337 333 332 337 336 336 338 338 338 340 348 356 2 359 359 2 8 13 15 19 24 27 29 29 31 34 39 45 61 88 101 108 117 124 99 121 128 132